Location: ?????
(31.8092°N, 35.2590°E)
Time: 20:28:33
(UTC+00:00)

Cosmos 2237 - Pass Details

Date: 20 June 2021
Orbit: 848 x 854 km, 70.8° (Epoch: 23 July)

Event Time Altitude Azimuth Distance (km) Brightness Sun altitude
Rises 17:42:56 0° 197° (SSW) 3,396 7.1 -10.8°
Reaches altitude 10° 17:45:22 10° 197° (SSW) 2,463 6.4 -11.2°
Maximum altitude 17:51:02 85° 109° (ESE) 854 4.2 -12.1°
Drops below altitude 10° 17:56:44 10° 21° (NNE) 2,474 6.9 -13.1°
Sets 17:59:11 0° 21° (NNE) 3,413 7.6 -13.5°
